Year,Month,Day,Hour,Minute,Value (Times are PST for temperature in C)
2014,07,07,00,00,14.00
2014,07,07,00,01,14.00
2014,07,07,00,02,14.00
2014,07,07,00,03,14.00
2014,07,07,00,04,14.00
2014,07,07,00,05,14.00
2014,07,07,00,06,14.10
2014,07,07,00,07,14.10
2014,07,07,00,08,14.10
2014,07,07,00,09,14.20
2014,07,07,00,10,14.20
2014,07,07,00,11,14.20
2014,07,07,00,12,14.20
2014,07,07,00,13,14.20
2014,07,07,00,14,14.20
2014,07,07,00,15,14.20
2014,07,07,00,16,14.20
2014,07,07,00,17,14.20
2014,07,07,00,18,14.20
2014,07,07,00,19,14.20
2014,07,07,00,20,14.20
2014,07,07,00,21,14.20
2014,07,07,00,22,14.20
2014,07,07,00,23,14.20
2014,07,07,00,24,14.20
2014,07,07,00,25,14.20
2014,07,07,00,26,14.20
2014,07,07,00,27,14.20
2014,07,07,00,28,14.20
2014,07,07,00,29,14.20
2014,07,07,00,30,14.20
2014,07,07,00,31,14.20
2014,07,07,00,32,14.10
2014,07,07,00,33,14.10
2014,07,07,00,34,14.00
2014,07,07,00,35,14.00
2014,07,07,00,36,13.90
2014,07,07,00,37,13.90
2014,07,07,00,38,13.80
2014,07,07,00,39,13.80
2014,07,07,00,40,13.70
2014,07,07,00,41,13.70
2014,07,07,00,42,13.70
2014,07,07,00,43,13.60
2014,07,07,00,44,13.60
2014,07,07,00,45,13.60
2014,07,07,00,46,13.50
2014,07,07,00,47,13.50
2014,07,07,00,48,13.50
2014,07,07,00,49,13.40
2014,07,07,00,50,13.40
2014,07,07,00,51,13.40
2014,07,07,00,52,13.30
2014,07,07,00,53,13.30
2014,07,07,00,54,13.20
2014,07,07,00,55,13.20
2014,07,07,00,56,13.20
2014,07,07,00,57,13.10
2014,07,07,00,58,13.10
2014,07,07,00,59,13.10
2014,07,07,01,00,13.10
2014,07,07,01,01,13.10
2014,07,07,01,02,13.10
2014,07,07,01,03,13.00
2014,07,07,01,04,13.00
2014,07,07,01,05,13.00
2014,07,07,01,06,13.00
2014,07,07,01,07,13.00
2014,07,07,01,08,13.00
2014,07,07,01,09,13.00
2014,07,07,01,10,13.00
2014,07,07,01,11,13.00
2014,07,07,01,12,12.90
2014,07,07,01,13,13.00
2014,07,07,01,14,13.00
2014,07,07,01,15,13.00
2014,07,07,01,16,13.00
2014,07,07,01,17,13.00
2014,07,07,01,18,13.00
2014,07,07,01,19,13.00
2014,07,07,01,20,13.10
2014,07,07,01,21,13.10
2014,07,07,01,22,13.10
2014,07,07,01,23,13.10
2014,07,07,01,24,13.10
2014,07,07,01,25,13.10
2014,07,07,01,26,13.10
2014,07,07,01,27,13.10
2014,07,07,01,28,13.10
2014,07,07,01,29,13.10
2014,07,07,01,30,13.10
2014,07,07,01,31,13.10
2014,07,07,01,32,13.10
2014,07,07,01,33,13.10
2014,07,07,01,34,13.10
2014,07,07,01,35,13.00
2014,07,07,01,36,13.00
2014,07,07,01,37,13.00
2014,07,07,01,38,13.00
2014,07,07,01,39,13.00
2014,07,07,01,40,13.00
2014,07,07,01,41,13.00
2014,07,07,01,42,13.00
2014,07,07,01,43,13.00
2014,07,07,01,44,13.00
2014,07,07,01,45,12.90
2014,07,07,01,46,12.90
2014,07,07,01,47,12.90
2014,07,07,01,48,12.90
2014,07,07,01,49,12.80
2014,07,07,01,50,12.80
2014,07,07,01,51,12.70
2014,07,07,01,52,12.70
2014,07,07,01,53,12.70
2014,07,07,01,54,12.60
2014,07,07,01,55,12.60
2014,07,07,01,56,12.60
2014,07,07,01,57,12.60
2014,07,07,01,58,12.60
2014,07,07,01,59,12.60
2014,07,07,02,00,12.60
2014,07,07,02,01,12.60
2014,07,07,02,02,12.60
2014,07,07,02,03,12.60
2014,07,07,02,04,12.50
2014,07,07,02,05,12.50
2014,07,07,02,06,12.50
2014,07,07,02,07,12.50
2014,07,07,02,08,12.50
2014,07,07,02,09,12.60
2014,07,07,02,10,12.60
2014,07,07,02,11,12.60
2014,07,07,02,12,12.60
2014,07,07,02,13,12.60
2014,07,07,02,14,12.60
2014,07,07,02,15,12.60
2014,07,07,02,16,12.60
2014,07,07,02,17,12.60
2014,07,07,02,18,12.60
2014,07,07,02,19,12.60
2014,07,07,02,20,12.60
2014,07,07,02,21,12.70
2014,07,07,02,22,12.70
2014,07,07,02,23,12.70
2014,07,07,02,24,12.70
2014,07,07,02,25,12.70
2014,07,07,02,26,12.70
2014,07,07,02,27,12.70
2014,07,07,02,28,12.80
2014,07,07,02,29,12.80
2014,07,07,02,30,12.80
2014,07,07,02,31,12.80
2014,07,07,02,32,12.80
2014,07,07,02,33,12.80
2014,07,07,02,34,12.80
2014,07,07,02,35,12.80
2014,07,07,02,36,12.80
2014,07,07,02,37,12.80
2014,07,07,02,38,12.80
2014,07,07,02,39,12.80
2014,07,07,02,40,12.80
2014,07,07,02,41,12.80
2014,07,07,02,42,12.80
2014,07,07,02,43,12.70
2014,07,07,02,44,12.70
2014,07,07,02,45,12.70
2014,07,07,02,46,12.70
2014,07,07,02,47,12.70
2014,07,07,02,48,12.70
2014,07,07,02,49,12.70
2014,07,07,02,50,12.60
2014,07,07,02,51,12.60
2014,07,07,02,52,12.60
2014,07,07,02,53,12.60
2014,07,07,02,54,12.60
2014,07,07,02,55,12.60
2014,07,07,02,56,12.60
2014,07,07,02,57,12.60
2014,07,07,02,58,12.60
2014,07,07,02,59,12.60
2014,07,07,03,00,12.60
2014,07,07,03,01,12.60
2014,07,07,03,02,12.60
2014,07,07,03,03,12.60
2014,07,07,03,04,12.60
2014,07,07,03,05,12.60
2014,07,07,03,06,12.60
2014,07,07,03,07,12.60
2014,07,07,03,08,12.60
2014,07,07,03,09,12.60
2014,07,07,03,10,12.60
2014,07,07,03,11,12.60
2014,07,07,03,12,12.60
2014,07,07,03,13,12.60
2014,07,07,03,14,12.60
2014,07,07,03,15,12.60
2014,07,07,03,16,12.60
2014,07,07,03,17,12.60
2014,07,07,03,18,12.60
2014,07,07,03,19,12.60
2014,07,07,03,20,12.60
2014,07,07,03,21,12.60
2014,07,07,03,22,12.60
2014,07,07,03,23,12.60
2014,07,07,03,24,12.60
2014,07,07,03,25,12.50
2014,07,07,03,26,12.50
2014,07,07,03,27,12.50
2014,07,07,03,28,12.50
2014,07,07,03,29,12.50
2014,07,07,03,30,12.50
2014,07,07,03,31,12.50
2014,07,07,03,32,12.50
2014,07,07,03,33,12.50
2014,07,07,03,34,12.50
2014,07,07,03,35,12.50
2014,07,07,03,36,12.50
2014,07,07,03,37,12.50
2014,07,07,03,38,12.50
2014,07,07,03,39,12.50
2014,07,07,03,40,12.60
2014,07,07,03,41,12.60
2014,07,07,03,42,12.60
2014,07,07,03,43,12.60
2014,07,07,03,44,12.60
2014,07,07,03,45,12.60
2014,07,07,03,46,12.60
2014,07,07,03,47,12.60
2014,07,07,03,48,12.60
2014,07,07,03,49,12.60
2014,07,07,03,50,12.70
2014,07,07,03,51,12.70
2014,07,07,03,52,12.70
2014,07,07,03,53,12.70
2014,07,07,03,54,12.70
2014,07,07,03,55,12.70
2014,07,07,03,56,12.70
2014,07,07,03,57,12.70
2014,07,07,03,58,12.70
2014,07,07,03,59,12.70
2014,07,07,04,00,12.70
2014,07,07,04,01,12.70
2014,07,07,04,02,12.70
2014,07,07,04,03,12.70
2014,07,07,04,04,12.70
2014,07,07,04,05,12.70
2014,07,07,04,06,12.70
2014,07,07,04,07,12.70
2014,07,07,04,08,12.70
2014,07,07,04,09,12.70
2014,07,07,04,10,12.70
2014,07,07,04,11,12.70
2014,07,07,04,12,12.70
2014,07,07,04,13,12.70
2014,07,07,04,14,12.70
2014,07,07,04,15,12.70
2014,07,07,04,16,12.70
2014,07,07,04,17,12.70
2014,07,07,04,18,12.70
2014,07,07,04,19,12.70
2014,07,07,04,20,12.70
2014,07,07,04,21,12.70
2014,07,07,04,22,12.70
2014,07,07,04,23,12.60
2014,07,07,04,24,12.60
2014,07,07,04,25,12.50
2014,07,07,04,26,12.50
2014,07,07,04,27,12.40
2014,07,07,04,28,12.40
2014,07,07,04,29,12.40
2014,07,07,04,30,12.40
2014,07,07,04,31,12.40
2014,07,07,04,32,12.40
2014,07,07,04,33,12.40
2014,07,07,04,34,12.30
2014,07,07,04,35,12.30
2014,07,07,04,36,12.30
2014,07,07,04,37,12.30
2014,07,07,04,38,12.30
2014,07,07,04,39,12.30
2014,07,07,04,40,12.30
2014,07,07,04,41,12.30
2014,07,07,04,42,12.30
2014,07,07,04,43,12.30
2014,07,07,04,44,12.30
2014,07,07,04,45,12.30
2014,07,07,04,46,12.30
2014,07,07,04,47,12.30
2014,07,07,04,48,12.30
2014,07,07,04,49,12.30
2014,07,07,04,50,12.30
2014,07,07,04,51,12.30
2014,07,07,04,52,12.30
2014,07,07,04,53,12.30
2014,07,07,04,54,12.30
2014,07,07,04,55,12.30
2014,07,07,04,56,12.30
2014,07,07,04,57,12.30
2014,07,07,04,58,12.30
2014,07,07,04,59,12.30
2014,07,07,05,00,12.40
2014,07,07,05,01,12.40
2014,07,07,05,02,12.40
2014,07,07,05,03,12.40
2014,07,07,05,04,12.40
2014,07,07,05,05,12.40
2014,07,07,05,06,12.40
2014,07,07,05,07,12.50
2014,07,07,05,08,12.50
2014,07,07,05,09,12.50
2014,07,07,05,10,12.50
2014,07,07,05,11,12.50
2014,07,07,05,12,12.50
2014,07,07,05,13,12.50
2014,07,07,05,14,12.50
2014,07,07,05,15,12.60
2014,07,07,05,16,12.60
2014,07,07,05,17,12.60
2014,07,07,05,18,12.60
2014,07,07,05,19,12.70
2014,07,07,05,20,12.70
2014,07,07,05,21,12.70
2014,07,07,05,22,12.70
2014,07,07,05,23,12.70
2014,07,07,05,24,12.70
2014,07,07,05,25,12.70
2014,07,07,05,26,12.70
2014,07,07,05,27,12.70
2014,07,07,05,28,12.80
2014,07,07,05,29,12.80
2014,07,07,05,30,12.80
2014,07,07,05,31,12.80
2014,07,07,05,32,12.80
2014,07,07,05,33,12.80
2014,07,07,05,34,12.80
2014,07,07,05,35,12.80
2014,07,07,05,36,12.80
2014,07,07,05,37,12.80
2014,07,07,05,38,12.80
2014,07,07,05,39,12.80
2014,07,07,05,40,12.80
2014,07,07,05,41,12.90
2014,07,07,05,42,12.90
2014,07,07,05,43,12.90
2014,07,07,05,44,12.90
2014,07,07,05,45,12.90
2014,07,07,05,46,12.90
2014,07,07,05,47,12.90
2014,07,07,05,48,12.90
2014,07,07,05,49,12.90
2014,07,07,05,50,12.90
2014,07,07,05,51,12.90
2014,07,07,05,52,12.90
2014,07,07,05,53,12.90
2014,07,07,05,54,12.90
2014,07,07,05,55,13.00
2014,07,07,05,56,13.00
2014,07,07,05,57,13.00
2014,07,07,05,58,13.00
2014,07,07,05,59,13.00
2014,07,07,06,00,13.00
2014,07,07,06,01,13.00
2014,07,07,06,02,13.10
2014,07,07,06,03,13.10
2014,07,07,06,04,13.10
2014,07,07,06,05,13.10
2014,07,07,06,06,13.10
2014,07,07,06,07,13.10
2014,07,07,06,08,13.20
2014,07,07,06,09,13.20
2014,07,07,06,10,13.20
2014,07,07,06,11,13.20
2014,07,07,06,12,13.20
2014,07,07,06,13,13.20
2014,07,07,06,14,13.20
2014,07,07,06,15,13.20
2014,07,07,06,16,13.20
2014,07,07,06,17,13.20
2014,07,07,06,18,13.20
2014,07,07,06,19,13.20
2014,07,07,06,20,13.20
2014,07,07,06,21,13.20
2014,07,07,06,22,13.30
2014,07,07,06,23,13.30
2014,07,07,06,24,13.30
2014,07,07,06,25,13.30
2014,07,07,06,26,13.30
2014,07,07,06,27,13.30
2014,07,07,06,28,13.30
2014,07,07,06,29,13.40
2014,07,07,06,30,13.40
2014,07,07,06,31,13.40
2014,07,07,06,32,13.40
2014,07,07,06,33,13.40
2014,07,07,06,34,13.40
2014,07,07,06,35,13.50
2014,07,07,06,36,13.50
2014,07,07,06,37,13.50
2014,07,07,06,38,13.50
2014,07,07,06,39,13.50
2014,07,07,06,40,13.60
2014,07,07,06,41,13.60
2014,07,07,06,42,13.60
2014,07,07,06,43,13.60
2014,07,07,06,44,13.60
2014,07,07,06,45,13.60
2014,07,07,06,46,13.60
2014,07,07,06,47,13.70
2014,07,07,06,48,13.70
2014,07,07,06,49,13.70
2014,07,07,06,50,13.70
2014,07,07,06,51,13.70
2014,07,07,06,52,13.70
2014,07,07,06,53,13.70
2014,07,07,06,54,13.70
2014,07,07,06,55,13.80
2014,07,07,06,56,13.80
2014,07,07,06,57,13.80
2014,07,07,06,58,13.80
2014,07,07,06,59,13.80
2014,07,07,07,00,13.80
2014,07,07,07,01,13.80
2014,07,07,07,02,13.80
2014,07,07,07,03,13.90
2014,07,07,07,04,13.90
2014,07,07,07,05,13.90
2014,07,07,07,06,13.90
2014,07,07,07,07,14.00
2014,07,07,07,08,14.00
2014,07,07,07,09,14.00
2014,07,07,07,10,14.00
2014,07,07,07,11,14.10
2014,07,07,07,12,14.10
2014,07,07,07,13,14.10
2014,07,07,07,14,14.10
2014,07,07,07,15,14.10
2014,07,07,07,16,14.20
2014,07,07,07,17,14.20
2014,07,07,07,18,14.20
2014,07,07,07,19,14.20
2014,07,07,07,20,14.20
2014,07,07,07,21,14.20
2014,07,07,07,22,14.20
2014,07,07,07,23,14.20
2014,07,07,07,24,14.20
2014,07,07,07,25,14.20
2014,07,07,07,26,14.20
2014,07,07,07,27,14.20
2014,07,07,07,28,14.20
2014,07,07,07,29,14.30
2014,07,07,07,30,14.30
2014,07,07,07,31,14.30
2014,07,07,07,32,14.30
2014,07,07,07,33,14.30
2014,07,07,07,34,14.30
2014,07,07,07,35,14.30
2014,07,07,07,36,14.30
2014,07,07,07,37,14.30
2014,07,07,07,38,14.30
2014,07,07,07,39,14.30
2014,07,07,07,40,14.30
2014,07,07,07,41,14.30
2014,07,07,07,42,14.30
2014,07,07,07,43,14.30
2014,07,07,07,44,14.20
2014,07,07,07,45,14.20
2014,07,07,07,46,14.20
2014,07,07,07,47,14.20
2014,07,07,07,48,14.20
2014,07,07,07,49,14.20
2014,07,07,07,50,14.20
2014,07,07,07,51,14.20
2014,07,07,07,52,14.20
2014,07,07,07,53,14.20
2014,07,07,07,54,14.20
2014,07,07,07,55,14.20
2014,07,07,07,56,14.30
2014,07,07,07,57,14.30
2014,07,07,07,58,14.30
2014,07,07,07,59,14.30
2014,07,07,08,00,14.30
2014,07,07,08,01,14.30
2014,07,07,08,02,14.30
2014,07,07,08,03,14.30
2014,07,07,08,04,14.30
2014,07,07,08,05,14.30
2014,07,07,08,06,14.30
2014,07,07,08,07,14.30
2014,07,07,08,08,14.30
2014,07,07,08,09,14.30
2014,07,07,08,10,14.30
2014,07,07,08,11,14.30
2014,07,07,08,12,14.30
2014,07,07,08,13,14.30
2014,07,07,08,14,14.30
2014,07,07,08,15,14.30
2014,07,07,08,16,14.30
2014,07,07,08,17,14.30
2014,07,07,08,18,14.30
2014,07,07,08,19,14.30
2014,07,07,08,20,14.30
2014,07,07,08,21,14.40
2014,07,07,08,22,14.40
2014,07,07,08,23,14.40
2014,07,07,08,24,14.40
2014,07,07,08,25,14.40
2014,07,07,08,26,14.40
2014,07,07,08,27,14.40
2014,07,07,08,28,14.40
2014,07,07,08,29,14.40
2014,07,07,08,30,14.40
2014,07,07,08,31,14.40
2014,07,07,08,32,14.40
2014,07,07,08,33,14.40
2014,07,07,08,34,14.50
2014,07,07,08,35,14.50
2014,07,07,08,36,14.50
2014,07,07,08,37,14.50
2014,07,07,08,38,14.50
2014,07,07,08,39,14.50
2014,07,07,08,40,14.50
2014,07,07,08,41,14.50
2014,07,07,08,42,14.60
2014,07,07,08,43,14.60
2014,07,07,08,44,14.60
2014,07,07,08,45,14.60
2014,07,07,08,46,14.60
2014,07,07,08,47,14.70
2014,07,07,08,48,14.70
2014,07,07,08,49,14.70
2014,07,07,08,50,14.80
2014,07,07,08,51,14.80
2014,07,07,08,52,14.80
2014,07,07,08,53,14.80
2014,07,07,08,54,14.80
2014,07,07,08,55,14.80
2014,07,07,08,56,14.80
2014,07,07,08,57,14.80
2014,07,07,08,58,14.80
2014,07,07,08,59,14.80
2014,07,07,09,00,14.80
2014,07,07,09,01,14.80
2014,07,07,09,02,14.80
2014,07,07,09,03,14.80
2014,07,07,09,04,14.80
2014,07,07,09,05,14.80
2014,07,07,09,06,14.80
2014,07,07,09,07,14.80
2014,07,07,09,08,14.80
2014,07,07,09,09,14.80
2014,07,07,09,10,14.80
2014,07,07,09,11,14.80
2014,07,07,09,12,14.80
2014,07,07,09,13,14.80
2014,07,07,09,14,14.80
2014,07,07,09,15,14.80
2014,07,07,09,16,14.70
2014,07,07,09,17,14.70
2014,07,07,09,18,14.70
2014,07,07,09,19,14.70
2014,07,07,09,20,14.70
2014,07,07,09,21,14.70
2014,07,07,09,22,14.70
2014,07,07,09,23,14.70
2014,07,07,09,24,14.70
2014,07,07,09,25,14.70
2014,07,07,09,26,14.60
2014,07,07,09,27,14.60
2014,07,07,09,28,14.50
2014,07,07,09,29,14.40
2014,07,07,09,30,14.40
2014,07,07,09,31,14.30
2014,07,07,09,32,14.20
2014,07,07,09,33,14.20
2014,07,07,09,34,14.10
2014,07,07,09,35,14.00
2014,07,07,09,36,14.00
2014,07,07,09,37,13.90
2014,07,07,09,38,13.90
2014,07,07,09,39,13.90
2014,07,07,09,40,13.80
2014,07,07,09,41,13.80
2014,07,07,09,42,13.80
2014,07,07,09,43,13.80
2014,07,07,09,44,13.70
2014,07,07,09,45,13.70
2014,07,07,09,46,13.70
2014,07,07,09,47,13.70
2014,07,07,09,48,13.70
2014,07,07,09,49,13.70
2014,07,07,09,50,13.70
2014,07,07,09,51,13.70
2014,07,07,09,52,13.70
2014,07,07,09,53,13.70
2014,07,07,09,54,13.70
2014,07,07,09,55,13.70
2014,07,07,09,56,13.70
2014,07,07,09,57,13.70
2014,07,07,09,58,13.70
2014,07,07,09,59,13.60
2014,07,07,10,00,13.60
2014,07,07,10,01,13.60
2014,07,07,10,02,13.60
2014,07,07,10,03,13.60
2014,07,07,10,04,13.70
2014,07,07,10,05,13.70
2014,07,07,10,06,13.70
2014,07,07,10,07,13.70
2014,07,07,10,08,13.70
2014,07,07,10,09,13.60
2014,07,07,10,10,13.70
2014,07,07,10,11,13.60
2014,07,07,10,12,13.60
2014,07,07,10,13,13.70
2014,07,07,10,14,13.70
2014,07,07,10,15,13.70
2014,07,07,10,16,13.70
2014,07,07,10,17,13.70
2014,07,07,10,18,13.70
2014,07,07,10,19,13.70
2014,07,07,10,20,13.70
2014,07,07,10,21,13.70
2014,07,07,10,22,13.70
2014,07,07,10,23,13.70
2014,07,07,10,24,13.70
2014,07,07,10,25,13.80
2014,07,07,10,26,13.80
2014,07,07,10,27,13.80
2014,07,07,10,28,13.80
2014,07,07,10,29,13.80
2014,07,07,10,30,13.80
2014,07,07,10,31,13.80
2014,07,07,10,32,13.80
2014,07,07,10,33,13.80
2014,07,07,10,34,13.80
2014,07,07,10,35,13.80
2014,07,07,10,36,13.80
2014,07,07,10,37,13.90
2014,07,07,10,38,13.90
2014,07,07,10,39,14.00
2014,07,07,10,40,14.00
2014,07,07,10,41,14.00
2014,07,07,10,42,14.10
2014,07,07,10,43,14.00
2014,07,07,10,44,14.10
2014,07,07,10,45,14.10
2014,07,07,10,46,14.10
2014,07,07,10,47,14.10
2014,07,07,10,48,14.20
2014,07,07,10,49,14.20
2014,07,07,10,50,14.20
2014,07,07,10,51,14.20
2014,07,07,10,52,14.20
2014,07,07,10,53,14.30
2014,07,07,10,54,14.30
2014,07,07,10,55,14.30
2014,07,07,10,56,14.20
2014,07,07,10,57,14.20
2014,07,07,10,58,14.20
2014,07,07,10,59,14.10
2014,07,07,11,00,14.10
2014,07,07,11,01,14.20
2014,07,07,11,02,14.20
2014,07,07,11,03,14.20
2014,07,07,11,04,14.30
2014,07,07,11,05,14.30
2014,07,07,11,06,14.40
2014,07,07,11,07,14.50
2014,07,07,11,08,14.50
2014,07,07,11,09,14.60
2014,07,07,11,10,14.70
2014,07,07,11,11,14.80
2014,07,07,11,12,14.90
2014,07,07,11,13,15.00
2014,07,07,11,14,15.10
2014,07,07,11,15,15.20
2014,07,07,11,16,15.30
2014,07,07,11,17,15.40
2014,07,07,11,18,15.50
2014,07,07,11,19,15.70
2014,07,07,11,20,15.90
2014,07,07,11,21,16.10
2014,07,07,11,22,16.30
2014,07,07,11,23,16.50
2014,07,07,11,24,16.80
2014,07,07,11,25,16.90
2014,07,07,11,26,17.10
2014,07,07,11,27,17.20
2014,07,07,11,28,17.30
2014,07,07,11,29,17.40
2014,07,07,11,30,17.50
2014,07,07,11,31,17.60
2014,07,07,11,32,17.70
2014,07,07,11,33,17.80
2014,07,07,11,34,18.00
2014,07,07,11,35,18.10
2014,07,07,11,36,18.20
2014,07,07,11,37,18.30
2014,07,07,11,38,18.40
2014,07,07,11,39,18.40
2014,07,07,11,40,18.50
2014,07,07,11,41,18.60
2014,07,07,11,42,18.60
2014,07,07,11,43,18.60
2014,07,07,11,44,18.60
2014,07,07,11,45,18.70
2014,07,07,11,46,18.70
2014,07,07,11,47,18.80
2014,07,07,11,48,18.80
2014,07,07,11,49,18.80
2014,07,07,11,50,18.70
2014,07,07,11,51,18.70
2014,07,07,11,52,18.70
2014,07,07,11,53,18.70
2014,07,07,11,54,18.70
2014,07,07,11,55,18.70
2014,07,07,11,56,18.70
2014,07,07,11,57,18.70
2014,07,07,11,58,18.70
2014,07,07,11,59,18.70
2014,07,07,12,00,18.70
2014,07,07,12,01,18.80
2014,07,07,12,02,18.80
2014,07,07,12,03,18.80
2014,07,07,12,04,18.90
2014,07,07,12,05,18.90
2014,07,07,12,06,19.00
2014,07,07,12,07,19.00
2014,07,07,12,08,19.10
2014,07,07,12,09,19.10
2014,07,07,12,10,19.10
2014,07,07,12,11,19.10
2014,07,07,12,12,19.10
2014,07,07,12,13,19.10
2014,07,07,12,14,19.10
2014,07,07,12,15,19.20
2014,07,07,12,16,19.20
2014,07,07,12,17,19.30
2014,07,07,12,18,19.30
2014,07,07,12,19,19.40
2014,07,07,12,20,19.40
2014,07,07,12,21,19.50
2014,07,07,12,22,19.50
2014,07,07,12,23,19.60
2014,07,07,12,24,19.60
2014,07,07,12,25,19.70
2014,07,07,12,26,19.70
2014,07,07,12,27,19.60
2014,07,07,12,28,19.50
2014,07,07,12,29,19.50
2014,07,07,12,30,19.40
2014,07,07,12,31,19.30
2014,07,07,12,32,19.30
2014,07,07,12,33,19.20
2014,07,07,12,34,19.20
2014,07,07,12,35,19.10
2014,07,07,12,36,19.10
2014,07,07,12,37,19.20
2014,07,07,12,38,19.20
2014,07,07,12,39,19.10
2014,07,07,12,40,19.10
2014,07,07,12,41,19.20
2014,07,07,12,42,19.20
2014,07,07,12,43,19.30
2014,07,07,12,44,19.30
2014,07,07,12,45,19.40
2014,07,07,12,46,19.50
2014,07,07,12,47,19.50
2014,07,07,12,48,19.60
2014,07,07,12,49,19.60
2014,07,07,12,50,19.60
2014,07,07,12,51,19.50
2014,07,07,12,52,19.50
2014,07,07,12,53,19.40
2014,07,07,12,54,19.50
2014,07,07,12,55,19.50
2014,07,07,12,56,19.60
2014,07,07,12,57,19.70
2014,07,07,12,58,19.70
2014,07,07,12,59,19.70
2014,07,07,13,00,19.60
2014,07,07,13,01,19.60
2014,07,07,13,02,19.60
2014,07,07,13,03,19.60
2014,07,07,13,04,19.60
2014,07,07,13,05,19.60
2014,07,07,13,06,19.70
2014,07,07,13,07,19.80
2014,07,07,13,08,19.80
2014,07,07,13,09,19.90
2014,07,07,13,10,19.90
2014,07,07,13,11,19.90
2014,07,07,13,12,19.80
2014,07,07,13,13,19.80
2014,07,07,13,14,19.80
2014,07,07,13,15,19.70
2014,07,07,13,16,19.70
2014,07,07,13,17,19.70
2014,07,07,13,18,19.70
2014,07,07,13,19,19.80
2014,07,07,13,20,19.80
2014,07,07,13,21,19.80
2014,07,07,13,22,19.80
2014,07,07,13,23,19.70
2014,07,07,13,24,19.70
2014,07,07,13,25,19.60
2014,07,07,13,26,19.60
2014,07,07,13,27,19.60
2014,07,07,13,28,19.60
2014,07,07,13,29,19.70
2014,07,07,13,30,19.70
2014,07,07,13,31,19.70
2014,07,07,13,32,19.80
2014,07,07,13,33,19.90
2014,07,07,13,34,19.90
2014,07,07,13,35,20.00
2014,07,07,13,36,20.00
2014,07,07,13,37,19.90
2014,07,07,13,38,19.90
2014,07,07,13,39,19.90
2014,07,07,13,40,19.90
2014,07,07,13,41,19.90
2014,07,07,13,42,19.90
2014,07,07,13,43,19.90
2014,07,07,13,44,20.00
2014,07,07,13,45,20.10
2014,07,07,13,46,20.10
2014,07,07,13,47,20.10
2014,07,07,13,48,20.10
2014,07,07,13,49,20.00
2014,07,07,13,50,19.90
2014,07,07,13,51,19.90
2014,07,07,13,52,19.90
2014,07,07,13,53,19.90
2014,07,07,13,54,19.90
2014,07,07,13,55,19.90
2014,07,07,13,56,19.90
2014,07,07,13,57,19.90
2014,07,07,13,58,19.90
2014,07,07,13,59,19.80
2014,07,07,14,00,19.80
2014,07,07,14,01,19.70
2014,07,07,14,02,19.70
2014,07,07,14,03,19.60
2014,07,07,14,04,19.50
2014,07,07,14,05,19.50
2014,07,07,14,06,19.50
2014,07,07,14,07,19.50
2014,07,07,14,08,19.60
2014,07,07,14,09,19.60
2014,07,07,14,10,19.60
2014,07,07,14,11,19.60
2014,07,07,14,12,19.60
2014,07,07,14,13,19.60
2014,07,07,14,14,19.60
2014,07,07,14,15,19.60
2014,07,07,14,16,19.60
2014,07,07,14,17,19.50
2014,07,07,14,18,19.40
2014,07,07,14,19,19.40
2014,07,07,14,20,19.50
2014,07,07,14,21,19.50
2014,07,07,14,22,19.60
2014,07,07,14,23,19.60
2014,07,07,14,24,19.70
2014,07,07,14,25,19.70
2014,07,07,14,26,19.70
2014,07,07,14,27,19.70
2014,07,07,14,28,19.80
2014,07,07,14,29,19.80
2014,07,07,14,30,19.90
2014,07,07,14,31,19.90
2014,07,07,14,32,19.90
2014,07,07,14,33,19.90
2014,07,07,14,34,19.90
2014,07,07,14,35,19.90
2014,07,07,14,36,19.90
2014,07,07,14,37,19.80
2014,07,07,14,38,19.80
2014,07,07,14,39,19.80
2014,07,07,14,40,19.80
2014,07,07,14,41,19.80
2014,07,07,14,42,19.80
2014,07,07,14,43,19.80
2014,07,07,14,44,19.90
2014,07,07,14,45,19.90
2014,07,07,14,46,20.00
2014,07,07,14,47,20.00
2014,07,07,14,48,20.10
2014,07,07,14,49,20.10
2014,07,07,14,50,20.20
2014,07,07,14,51,20.20
2014,07,07,14,52,20.20
2014,07,07,14,53,20.30
2014,07,07,14,54,20.40
2014,07,07,14,55,20.40
2014,07,07,14,56,20.40
2014,07,07,14,57,20.40
2014,07,07,14,58,20.40
2014,07,07,14,59,20.30
2014,07,07,15,00,20.30
2014,07,07,15,01,20.30
2014,07,07,15,02,20.20
2014,07,07,15,03,20.20
2014,07,07,15,04,20.20
2014,07,07,15,05,20.10
2014,07,07,15,06,20.20
2014,07,07,15,07,20.20
2014,07,07,15,08,20.20
2014,07,07,15,09,20.30
2014,07,07,15,10,20.30
2014,07,07,15,11,20.30
2014,07,07,15,12,20.20
2014,07,07,15,13,20.10
2014,07,07,15,14,20.00
2014,07,07,15,15,20.00
2014,07,07,15,16,19.90
2014,07,07,15,17,19.90
2014,07,07,15,18,19.80
2014,07,07,15,19,19.80
2014,07,07,15,20,19.90
2014,07,07,15,21,19.90
2014,07,07,15,22,19.90
2014,07,07,15,23,19.90
2014,07,07,15,24,20.00
2014,07,07,15,25,20.10
2014,07,07,15,26,20.10
2014,07,07,15,27,20.00
2014,07,07,15,28,19.90
2014,07,07,15,29,19.90
2014,07,07,15,30,19.90
2014,07,07,15,31,19.90
2014,07,07,15,32,19.90
2014,07,07,15,33,20.00
2014,07,07,15,34,20.10
2014,07,07,15,35,20.10
2014,07,07,15,36,20.10
2014,07,07,15,37,20.10
2014,07,07,15,38,20.10
2014,07,07,15,39,20.10
2014,07,07,15,40,20.10
2014,07,07,15,41,20.10
2014,07,07,15,42,20.20
2014,07,07,15,43,20.20
2014,07,07,15,44,20.30
2014,07,07,15,45,20.40
2014,07,07,15,46,20.50
2014,07,07,15,47,20.50
2014,07,07,15,48,20.60
2014,07,07,15,49,20.60
2014,07,07,15,50,20.60
2014,07,07,15,51,20.60
2014,07,07,15,52,20.60
2014,07,07,15,53,20.60
2014,07,07,15,54,20.60
2014,07,07,15,55,20.70
2014,07,07,15,56,20.70
2014,07,07,15,57,20.70
2014,07,07,15,58,20.80
2014,07,07,15,59,20.70
2014,07,07,16,00,20.70
2014,07,07,16,01,20.70
2014,07,07,16,02,20.70
2014,07,07,16,03,20.70
2014,07,07,16,04,20.70
2014,07,07,16,05,20.70
2014,07,07,16,06,20.80
2014,07,07,16,07,20.80
2014,07,07,16,08,20.90
2014,07,07,16,09,20.90
2014,07,07,16,10,20.90
2014,07,07,16,11,21.00
2014,07,07,16,12,21.00
2014,07,07,16,13,21.00
2014,07,07,16,14,21.00
2014,07,07,16,15,21.10
2014,07,07,16,16,21.10
2014,07,07,16,17,21.30
2014,07,07,16,18,21.30
2014,07,07,16,19,21.40
2014,07,07,16,20,21.40
2014,07,07,16,21,21.40
2014,07,07,16,22,21.40
2014,07,07,16,23,21.40
2014,07,07,16,24,21.40
2014,07,07,16,25,21.50
2014,07,07,16,26,21.50
2014,07,07,16,27,21.50
2014,07,07,16,28,21.60
2014,07,07,16,29,21.60
2014,07,07,16,30,21.60
2014,07,07,16,31,21.60
2014,07,07,16,32,21.60
2014,07,07,16,33,21.60
2014,07,07,16,34,21.60
2014,07,07,16,35,21.60
2014,07,07,16,36,21.70
2014,07,07,16,37,21.70
2014,07,07,16,38,21.60
2014,07,07,16,39,21.70
2014,07,07,16,40,21.70
2014,07,07,16,41,21.70
2014,07,07,16,42,21.70
2014,07,07,16,43,21.70
2014,07,07,16,44,21.70
2014,07,07,16,45,21.70
2014,07,07,16,46,21.70
2014,07,07,16,47,21.70
2014,07,07,16,48,21.60
2014,07,07,16,49,21.50
2014,07,07,16,50,21.50
2014,07,07,16,51,21.40
2014,07,07,16,52,21.30
2014,07,07,16,53,21.30
2014,07,07,16,54,21.20
2014,07,07,16,55,21.10
2014,07,07,16,56,21.10
2014,07,07,16,57,21.00
2014,07,07,16,58,21.00
2014,07,07,16,59,20.80
2014,07,07,17,00,20.70
2014,07,07,17,01,20.50
2014,07,07,17,02,20.40
2014,07,07,17,03,20.20
2014,07,07,17,04,20.00
2014,07,07,17,05,19.90
2014,07,07,17,06,19.70
2014,07,07,17,07,19.50
2014,07,07,17,08,19.30
2014,07,07,17,09,19.10
2014,07,07,17,10,19.00
2014,07,07,17,11,18.80
2014,07,07,17,12,18.60
2014,07,07,17,13,18.40
2014,07,07,17,14,18.20
2014,07,07,17,15,18.10
2014,07,07,17,16,17.90
2014,07,07,17,17,17.80
2014,07,07,17,18,17.70
2014,07,07,17,19,17.60